San Angelo, TX

2:26 PM CDT on April 28, 2017 (GMT -0500)
San Angelo Regional-Mathis

Weather History for KSJT - June, 2012

Change the Weather History Date:

Friday, June 29, 2012

  Actual Average Record
Temperature  
Mean Temperature 89 °F 82 °F  
Max Temperature 100 °F 94 °F 108 °F (1994)
Min Temperature 77 °F 70 °F 54 °F (1985)
Degree Days  
Heating Degree Days 0 0  
Month to date heating degree days 0 0  
Since 1 June heating degree days 0 0  
Since 1 July heating degree days 1886 2316  
Cooling Degree Days 24 17  
Month to date cooling degree days 600 446  
Year to date cooling degree days 1305 906  
Since 1 June cooling degree days 600 446  
Growing Degree Days 38 (Base 50)    
Moisture  
Dew Point 56 °F    
Average Humidity 39    
Maximum Humidity 60    
Minimum Humidity 18    
Precipitation  
Precipitation 0.00 in 0.06 in 2.70 in (1913)
Month to date precipitation 0.53 2.53  
Year to date precipitation 13.09 10.55  
Sea Level Pressure  
Sea Level Pressure 29.88 in    
Wind  
Wind Speed 9 mph (SSE)    
Max Wind Speed 17 mph    
Max Gust Speed 24 mph    
Visibility 10 miles    
Events      
T = Trace of Precipitation, MM = Missing Value Source: NWS Daily Summary

Daily Weather History Graph

Daily Weather History Graph

Search for Another Location

Airport or City:

Trip Planner

Search our weather history database for the weather conditions in past years. The results will help you decide how hot, cold, wet, or windy it might be!

Date:

Astronomy

Jun. 29, 2012 Rise Set
Actual Time 6:40 AM CDT 8:50 PM CDT
Civil Twilight 6:12 AM CDT 9:18 PM CDT
Nautical Twilight 5:38 AM CDT 9:52 PM CDT
Astronomical Twilight 5:01 AM CDT 10:29 PM CDT
Moon 4:44 PM CDT (6/29) 2:44 AM CDT (6/29)
Length of Visible Light 15h 05m
Length of Day
14h 09m
Waxing Gibbous, 78% of the Moon is Illuminated
Jun 29
Waxing Gibbous
Jul 3
Full
Jul 10
Last Quarter
Jul 18
New
Jul 26
First Quarter

Hourly Weather History & Observations

Time (CDT) Temp. Heat Index Dew Point Humidity Pressure Visibility Wind Dir Wind Speed Gust Speed Precip Events Conditions
12:51 AM 84.0 °F 82.6 °F 54.0 °F 35% 29.93 in 10.0 mi SSE 6.9 mph - N/A   Clear
1:51 AM 82.9 °F 82.0 °F 55.0 °F 38% 29.92 in 10.0 mi South 6.9 mph - N/A   Clear
2:51 AM 82.9 °F 82.0 °F 55.0 °F 38% 29.91 in 10.0 mi South 10.4 mph - N/A   Clear
3:51 AM 81.0 °F 81.0 °F 57.0 °F 44% 29.91 in 10.0 mi South 9.2 mph - N/A   Clear
4:51 AM 79.0 °F - 57.9 °F 48% 29.91 in 10.0 mi South 9.2 mph - N/A   Clear
5:51 AM 78.1 °F - 60.1 °F 54% 29.91 in 10.0 mi South 10.4 mph - N/A   Clear
6:51 AM 77.0 °F - 62.1 °F 60% 29.92 in 10.0 mi South 9.2 mph - N/A   Clear
7:51 AM 78.1 °F - 63.0 °F 60% 29.94 in 10.0 mi South 10.4 mph - N/A   Clear
8:51 AM 81.0 °F 82.7 °F 64.9 °F 58% 29.96 in 10.0 mi South 9.2 mph - N/A   Clear
9:51 AM 86.0 °F 86.8 °F 63.0 °F 46% 29.96 in 10.0 mi South 10.4 mph - N/A   Clear
10:51 AM 89.1 °F 89.0 °F 61.0 °F 39% 29.94 in 10.0 mi South 8.1 mph - N/A   Clear
11:51 AM 93.0 °F 93.0 °F 61.0 °F 34% 29.93 in 10.0 mi South 8.1 mph 16.1 mph N/A   Clear
12:51 PM 93.9 °F 92.6 °F 57.0 °F 29% 29.91 in 10.0 mi South 10.4 mph 17.3 mph N/A   Partly Cloudy
1:51 PM 96.1 °F 94.1 °F 55.0 °F 25% 29.88 in 10.0 mi Variable 6.9 mph 19.6 mph N/A   Partly Cloudy
2:51 PM 97.0 °F 94.6 °F 54.0 °F 23% 29.85 in 10.0 mi SSE 5.8 mph - N/A   Scattered Clouds
3:51 PM 98.1 °F - 51.1 °F 20% 29.83 in 10.0 mi Calm Calm - N/A   Clear
4:51 PM 98.1 °F - 52.0 °F 21% 29.81 in 10.0 mi South 9.2 mph - N/A   Partly Cloudy
5:51 PM 98.1 °F - 51.1 °F 20% 29.79 in 10.0 mi East 8.1 mph 18.4 mph N/A   Clear
6:51 PM 98.1 °F - 48.9 °F 19% 29.78 in 10.0 mi SE 12.7 mph 17.3 mph N/A   Clear
7:51 PM 96.1 °F - 50.0 °F 21% 29.78 in 10.0 mi SE 8.1 mph - N/A   Clear
8:51 PM 91.9 °F - 51.1 °F 25% 29.79 in 10.0 mi ESE 8.1 mph - N/A   Clear
9:51 PM 87.1 °F - 51.1 °F 29% 29.80 in 10.0 mi ESE 6.9 mph - N/A   Clear
10:51 PM 87.1 °F 86.1 °F 57.9 °F 37% 29.82 in 10.0 mi SE 15.0 mph 24.2 mph N/A   Clear
11:51 PM 84.0 °F 84.0 °F 60.1 °F 44% 29.83 in 10.0 mi SSE 11.5 mph - N/A   Clear